الكل
Fisher County Airport (Rotan/Roby, TX) 56F حالة الطقس
There is no TAF data available at 56F or any nearby airports.
There is no METAR data available at 56F. Showing METAR data for KSWW (25 mi جنوب).
محفوظات أحدث تقرير روتيني عن حالة الطقس من أجل الطيران (الميتار) SWW ( لا توجد بيانات لـ56F)
| Date | Time (CDT) | Flight Rules | Wind Dir. | Speed | Type | Height AGL (ft) | Visibility | Temp (°C) | Temp (°F) | Dew Point (°C) | Dew Point (°F) | Rel. Humid. | Pressure | Density Altitude | Remarks |
|---|---|---|---|---|---|---|---|---|---|---|---|---|---|---|---|
| 06-سبت | 04:35 | VFR | 200° | 7 kt | 10 miles | 26° | 78° | 18° | 64° | 61% | 29.99 in Hg | 4,104 ft | |||
| 06-سبت | 04:15 | VFR | 210° | 6 kt | 10 miles | 26° | 78° | 18° | 64° | 59% | 29.99 in Hg | 4,104 ft | |||
| 06-سبت | 03:55 | VFR | 200° | 6 kt | 10 miles | 27° | 80° | 17° | 62° | 57% | 29.99 in Hg | 4,224 ft | |||
| 06-سبت | 03:35 | VFR | 210° | 8 kt | 10 miles | 26° | 78° | 17° | 62° | 57% | 29.99 in Hg | 4,104 ft | |||
| 06-سبت | 03:15 | VFR | 210° | 5 kt | 10 miles | 26° | 78° | 16° | 60° | 52% | 29.99 in Hg | 4,104 ft | |||
| 06-سبت | 02:55 | VFR | 200° | 5 kt | 10 miles | 27° | 80° | 16° | 60° | 52% | 29.99 in Hg | 4,224 ft | |||
| 06-سبت | 02:35 | VFR | 180° | 7 kt | 10 miles | 27° | 80° | 16° | 60° | 50% | 29.99 in Hg | 4,224 ft | |||
| 06-سبت | 02:15 | VFR | 180° | 7 kt | 10 miles | 27° | 80° | 15° | 59° | 49% | 30.00 in Hg | 4,214 ft | |||
| 06-سبت | 01:55 | VFR | 170° | 8 kt | 10 miles | 28° | 82° | 15° | 59° | 46% | 30.00 in Hg | 4,334 ft | |||
| 06-سبت | 01:35 | VFR | 180° | 7 kt | 10 miles | 28° | 82° | 15° | 59° | 45% | 30.01 in Hg | 4,324 ft | |||
| 06-سبت | 01:15 | VFR | 170° | 8 kt | 10 miles | 28° | 82° | 15° | 59° | 44% | 30.02 in Hg | 4,314 ft | |||
| 06-سبت | 00:55 | VFR | 160° | 10 kt | 10 miles | 29° | 84° | 15° | 59° | 43% | 30.02 in Hg | 4,434 ft | |||
| 06-سبت | 00:35 | VFR | 160° | 8 kt | 10 miles | 29° | 84° | 15° | 59° | 42% | 30.02 in Hg | 4,434 ft | |||
| 06-سبت | 00:15 | VFR | 160° | 9 kt | 10 miles | 29° | 84° | 14° | 57° | 41% | 30.02 in Hg | 4,434 ft | |||
| 05-سبت | 23:55 | VFR | 160° | 7 kt | 10 miles | 29° | 84° | 14° | 57° | 40% | 30.02 in Hg | 4,434 ft | |||
| 05-سبت | 23:15 | VFR | 150° | 8 kt | 10 miles | 30° | 86° | 14° | 57° | 39% | 30.01 in Hg | 4,564 ft | |||
| 05-سبت | 22:55 | VFR | 140° | 8 kt | 10 miles | 30° | 86° | 14° | 57° | 38% | 30.01 in Hg | 4,564 ft | |||
| 05-سبت | 22:35 | VFR | 140° | 7 kt | 10 miles | 30° | 86° | 14° | 57° | 38% | 30.00 in Hg | 4,574 ft | |||
| 05-سبت | 22:15 | VFR | 130° | 8 kt | 10 miles | 30° | 86° | 15° | 59° | 40% | 29.99 in Hg | 4,584 ft | |||
| 05-سبت | 21:55 | VFR | 130° | 7 kt | 10 miles | 31° | 87° | 16° | 60° | 41% | 29.98 in Hg | 4,714 ft | |||
| 05-سبت | 21:35 | VFR | 130° | 7 kt | 10 miles | 31° | 87° | 15° | 59° | 38% | 29.97 in Hg | 4,724 ft | |||
| 05-سبت | 21:15 | VFR | 130° | 7 kt | 10 miles | 32° | 89° | 15° | 59° | 36% | 29.97 in Hg | 4,844 ft | |||
| 05-سبت | 20:55 | VFR | 130° | 5 kt | 10 miles | 32° | 89° | 15° | 59° | 35% | 29.96 in Hg | 4,854 ft | |||
| 05-سبت | 20:35 | VFR | 130° | 5 kt | 10 miles | 33° | 91° | 14° | 57° | 33% | 29.95 in Hg | 4,984 ft |
تسجيل الدخول
| مُتصفحك غير مُدعَّم. قم بترقية متصفحك |
